EW1689 Weather Reports


Display with metric or nautical units.
time (UTC)temp
F
wind
direction
speed
MPH
gust
MPH
rain 1hr
in
rain 24hr
in
rain mn
in
humidity
%
barometer
mb
20260906173517 97 180 1.0 3.0 0.00 0.00 0.00 30 1013.0
20260906172537 97 180 2.0 6.0 0.00 0.00 0.00 30 1013.0
20260906171517 96 0.0 2.0 0.00 0.00 0.00 29 1012.9
20260906170517 96 158 1.0 3.0 0.00 0.00 0.00 30 1013.2
20260906165517 96 0.0 2.0 0.00 0.00 0.00 30 1013.3
20260906164517 95 0.0 1.0 0.00 0.00 0.00 31 1013.1
20260906163517 94 90 1.0 2.0 0.00 0.00 0.00 33 1013.1
20260906162517 94 0.0 1.0 0.00 0.00 0.00 33 1013.0
20260906161517 94 0.0 2.0 0.00 0.00 0.00 33 1013.2
20260906160537 93 0.0 2.0 0.00 0.00 0.00 33 1013.2
20260906155517 92 0.0 1.0 0.00 0.00 0.00 35 1013.1
20260906154537 91 90 1.0 2.0 0.00 0.00 0.00 35 1013.2
20260906153517 91 90 1.0 3.0 0.00 0.00 0.00 36 1013.3
20260906152517 89 0 1.0 2.0 0.00 0.00 0.00 37 1013.2
20260906151517 89 0 1.0 3.0 0.00 0.00 0.00 38 1013.2
20260906150517 88 0 1.0 2.0 0.00 0.00 0.00 39 1013.1
20260906145517 88 0 1.0 3.0 0.00 0.00 0.00 39 1013.1
20260906144537 87 0 1.0 2.0 0.00 0.00 0.00 40 1012.9
20260906143517 86 0.0 2.0 0.00 0.00 0.00 41 1012.9
20260906142517 85 0.0 1.0 0.00 0.00 0.00 43 1012.8
20260906141516 84 0.0 0.0 0.00 0.00 0.00 43 1012.5
20260906140517 83 0.0 1.0 0.00 0.00 0.00 44 1012.4
20260906135516 83 0.0 2.0 0.00 0.00 0.00 44 1012.3
20260906134517 82 0.0 1.0 0.00 0.00 0.00 44 1012.1
20260906133517 82 0.0 0.0 0.00 0.00 0.00 46 1011.9
20260906132537 81 0.0 0.0 0.00 0.00 0.00 46 1011.9
20260906131517 79 0.0 0.0 0.00 0.00 0.00 48 1011.8
20260906130557 79 0.0 0.0 0.00 0.00 0.00 48 1011.7
20260906125516 79 0.0 0.0 0.00 0.00 0.00 48 1011.7
20260906124517 80 0.0 0.0 0.00 0.00 0.00 47 1011.6
20260906123516 80 0.0 0.0 0.00 0.00 0.00 47 1011.7
20260906122557 81 0.0 0.0 0.00 0.00 0.00 46 1011.7
20260906121517 81 0.0 0.0 0.00 0.00 0.00 45 1011.7
20260906120516 81 0.0 0.0 0.00 0.00 0.00 45 1011.7
20260906115517 81 0.0 0.0 0.00 0.00 0.00 45 1011.9
20260906114536 81 0.0 0.0 0.00 0.00 0.00 45 1011.8
20260906113516 81 0.0 0.0 0.00 0.00 0.00 45 1011.8
20260906112537 81 0.0 0.0 0.00 0.00 0.00 44 1011.8
20260906111516 81 0.0 0.0 0.00 0.00 0.00 45 1011.9
20260906110516 81 0.0 0.0 0.00 0.00 0.00 44 1011.8
20260906105517 81 0.0 0.0 0.00 0.00 0.00 44 1011.7
20260906104537 82 0.0 0.0 0.00 0.00 0.00 43 1011.9
20260906103516 82 0.0 0.0 0.00 0.00 0.00 43 1011.9
20260906102556 82 0.0 0.0 0.00 0.00 0.00 43 1011.9
20260906101556 82 0.0 0.0 0.00 0.00 0.00 43 1011.8
20260906100516 82 0.0 0.0 0.00 0.00 0.00 43 1011.9
20260906095516 82 0.0 0.0 0.00 0.00 0.00 42 1011.9
20260906094516 82 0.0 0.0 0.00 0.00 0.00 42 1011.8
20260906093516 82 0.0 0.0 0.00 0.00 0.00 42 1011.8
20260906092516 82 0.0 0.0 0.00 0.00 0.00 42 1011.9
20260906091516 83 0.0 0.0 0.00 0.00 0.00 42 1011.8
20260906090536 83 0.0 0.0 0.00 0.00 0.00 42 1011.9
20260906085516 83 0.0 0.0 0.00 0.00 0.00 41 1012.0
20260906084516 84 0.0 0.0 0.00 0.00 0.00 40 1012.0
20260906083517 84 0.0 0.0 0.00 0.00 0.00 39 1011.9
20260906082556 85 0.0 0.0 0.00 0.00 0.00 39 1012.0
20260906081516 85 0.0 0.0 0.00 0.00 0.00 38 1012.0
20260906080516 85 0.0 0.0 0.00 0.00 0.00 39 1012.1
20260906075516 84 0.0 0.0 0.00 0.00 0.00 39 1012.2
20260906074516 85 0.0 0.0 0.00 0.00 0.00 40 1012.4
20260906073536 85 0.0 0.0 0.00 0.00 0.00 38 1012.5
20260906072517 85 0.0 0.0 0.00 0.00 0.00 38 1012.3
20260906071516 85 0.0 0.0 0.00 0.00 0.00 38 1012.4
20260906070516 85 0.0 0.0 0.00 0.00 0.00 38 1012.4
20260906065517 86 0.0 0.0 0.00 0.00 0.00 38 1012.4
20260906064517 86 0.0 0.0 0.00 0.00 0.00 37 1012.4
20260906063517 86 0.0 0.0 0.00 0.00 0.00 37 1012.3
20260906062537 86 0.0 0.0 0.00 0.00 0.00 36 1012.4
20260906061517 86 0.0 0.0 0.00 0.00 0.00 37 1012.4
20260906060517 86 0.0 0.0 0.00 0.00 0.00 37 1012.4
20260906055517 86 0.0 0.0 0.00 0.00 0.00 37 1012.0
20260906054537 86 0.0 0.0 0.00 0.00 0.00 38 1012.2
20260906053517 86 0.0 0.0 0.00 0.00 0.00 38 1012.2
20260906052517 86 0.0 0.0 0.00 0.00 0.00 37 1012.2
20260906051517 87 0.0 0.0 0.00 0.00 0.00 36 1012.3
20260906050517 87 0.0 1.0 0.00 0.00 0.00 36 1012.3
20260906045518 88 0 1.0 4.0 0.00 0.00 0.00 35 1012.3
20260906044517 88 0.0 1.0 0.00 0.00 0.00 34 1012.3
20260906043537 88 0.0 2.0 0.00 0.00 0.00 34 1012.2
20260906042516 88 0.0 0.0 0.00 0.00 0.00 35 1012.1
20260906041517 88 0.0 0.0 0.00 0.00 0.00 35 1012.2
20260906040517 88 0.0 0.0 0.00 0.00 0.00 34 1012.1
20260906035537 88 0.0 0.0 0.00 0.00 0.00 34 1012.1
20260906034638 89 0.0 0.0 0.00 0.00 0.00 33 1012.1
20260906033517 89 0.0 0.0 0.00 0.00 0.00 33 1012.0
20260906032557 90 0.0 0.0 0.00 0.00 0.00 32 1012.0
20260906031557 90 0.0 1.0 0.00 0.00 0.00 32 1011.9
20260906030517 90 0.0 1.0 0.00 0.00 0.00 31 1011.8
20260906025536 90 0.0 1.0 0.00 0.00 0.00 32 1011.7
20260906024516 90 0 1.0 3.0 0.00 0.00 0.00 31 1011.6
20260906023517 90 0 1.0 4.0 0.00 0.00 0.00 32 1011.4
20260906022517 90 0 2.0 4.0 0.00 0.00 0.00 33 1011.2
20260906021517 91 0 1.0 3.0 0.00 0.00 0.00 32 1011.2
20260906020516 91 0 1.0 2.0 0.00 0.00 0.00 31 1011.2
20260906015516 91 0.0 2.0 0.00 0.00 0.00 31 1011.2
20260906014517 92 0.0 2.0 0.00 0.00 0.00 32 1011.2
20260906013516 92 0 1.0 2.0 0.00 0.00 0.00 31 1011.2
20260906012517 93 0.0 2.0 0.00 0.00 0.00 29 1011.3
20260906011517 93 0 1.0 3.0 0.00 0.00 0.00 30 1011.4
20260906010516 94 0 1.0 5.0 0.00 0.00 0.00 28 1011.4
20260906005516 95 0 1.0 3.0 0.00 0.00 0.00 28 1011.5
20260906004516 95 0 1.0 5.0 0.00 0.00 0.00 28 1011.7
20260906003516 95 0 1.0 3.0 0.00 0.00 0.00 28 1011.6
20260906002516 96 0 1.0 3.0 0.00 0.00 0.00 27 1011.6
20260906001516 96 0 1.0 4.0 0.00 0.00 0.00 27 1011.5
20260906000516 97 0 1.0 5.0 0.00 0.00 0.00 27 1011.4
20260905235516 97 0 1.0 4.0 0.00 0.00 0.00 28 1011.5
20260905234556 98 203 2.0 4.0 0.00 0.00 0.00 28 1011.7
20260905233516 99 180 2.0 5.0 0.00 0.00 0.00 27 1011.7
20260905232516 100 203 2.0 5.0 0.00 0.00 0.00 26 1011.7
20260905231537 101 225 1.0 3.0 0.00 0.00 0.00 26 1011.9
20260905230516 101 203 1.0 3.0 0.00 0.00 0.00 27 1011.8
20260905225517 101 180 2.0 6.0 0.00 0.00 0.00 28 1011.9
20260905224516 101 203 1.0 6.0 0.00 0.00 0.00 27 1011.9
20260905223516 101 225 1.0 3.0 0.00 0.00 0.00 29 1012.0
20260905222516 100 248 1.0 3.0 0.00 0.00 0.00 28 1012.1
20260905221516 99 180 2.0 8.0 0.00 0.00 0.00 30 1012.3
20260905220516 100 203 2.0 5.0 0.00 0.00 0.00 28 1012.4
20260905215516 101 203 2.0 6.0 0.00 0.00 0.00 27 1012.7
20260905214516 101 203 1.0 2.0 0.00 0.00 0.00 27 1012.7
20260905213516 100 180 1.0 3.0 0.00 0.00 0.00 28 1012.9
20260905212516 99 248 1.0 3.0 0.00 0.00 0.00 30 1013.0
20260905211516 100 180 3.0 7.0 0.00 0.00 0.00 28 1013.2
20260905210516 100 0.0 2.0 0.00 0.00 0.00 28 1013.2
20260905205516 98 180 1.0 4.0 0.00 0.00 0.00 29 1013.3
20260905204536 99 180 2.0 4.0 0.00 0.00 0.00 28 1013.6
20260905203515 99 180 2.0 7.0 0.00 0.00 0.00 29 1013.7
20260905202516 99 180 2.0 5.0 0.00 0.00 0.00 27 1013.8
20260905201537 99 203 1.0 3.0 0.00 0.00 0.00 29 1014.0
20260905200515 98 180 1.0 3.0 0.00 0.00 0.00 29 1014.0
20260905195516 97 203 2.0 5.0 0.00 0.00 0.00 28 1014.1
20260905194535 97 180 2.0 5.0 0.00 0.00 0.00 27 1014.3
20260905193516 99 180 1.0 4.0 0.00 0.00 0.00 26 1014.4
20260905192516 99 270 1.0 3.0 0.00 0.00 0.00 25 1014.6
20260905191555 98 0 1.0 3.0 0.00 0.00 0.00 28 1014.8
20260905190556 97 0 1.0 4.0 0.00 0.00 0.00 27 1014.9
20260905185515 97 0 1.0 4.0 0.00 0.00 0.00 29 1015.1
20260905184536 96 0 1.0 2.0 0.00 0.00 0.00 30 1015.1
20260905183515 95 0 1.0 3.0 0.00 0.00 0.00 30 1015.2
20260905182517 95 0 2.0 7.0 0.00 0.00 0.00 30 1015.2
20260905181517 95 0 1.0 3.0 0.00 0.00 0.00 30 1015.2
20260905180517 96 0 1.0 3.0 0.00 0.00 0.00 29 1015.4
20260905175517 95 0.0 1.0 0.00 0.00 0.00 31 1015.3
20260905174538 93 0.0 1.0 0.00 0.00 0.00 33 1015.2